Вернуться в каталог

STARLINK-4637

АктивенСвязьVLEO
NORAD 53742·PAYLOAD·🇺🇸 United States

Запущен Sep 5, 2022 с Cape Canaveral Space Force Station

Loading…

Ближайшие Пролёты (ближайшие 24 часа)

TLE

СвежийSource: CelesTrak SupGP

Эпоха: Sep 15, 2026, 02:26 UTC

1 53742C 22107AU  26258.10187500  .00040316  00000+0  11912-2 0  2585
2 53742  53.1576 118.8036 0001156  84.9248 262.2694 15.34368704    18

Отслеживайте STARLINK-4637 в реальном времени с AllMySat

Download on the App Store